[Iaude] MPEC F12: 2024 FB [a=1.05,e=0.31,i=1.7,H=25.7]

mpec at cfa.harvard.edu mpec at cfa.harvard.edu
Mon Mar 18 02:37:47 EDT 2024


M.P.E.C. 2024-F12                                Issued 2024 March 18, 06:36 UT

     The Minor Planet Electronic Circulars contain information on unusual
         minor planets, routine data on comets and natural satellites,
         and occasional editorial announcements.  They are published
    on behalf of Division F of the International Astronomical Union by the
          Minor Planet Center, Smithsonian Astrophysical Observatory,
                          Cambridge, MA 02138, U.S.A.
			  
             Prepared using the Tamkin Foundation Computer Network

                              MPC at CFA.HARVARD.EDU
            URL https://www.minorplanetcenter.net/    ISSN 1523-6714

                                    2024 FB                                     


Observations:
     K24F00B* C2024 03 16.53053012 45 19.531+05 36 05.33         21.38wXEF012F52
     K24F00B  C2024 03 16.54228412 45 14.775+05 36 27.75         21.78wXEF012F52
     K24F00B  C2024 03 16.55405112 45 10.091+05 36 49.53         21.39wXEF012F52
     K24F00B  C2024 03 16.56578712 45 05.433+05 37 11.45         21.57wXEF012F52
     K24F00B 1C2024 03 17.01425 12 42 27.57 +05 50 13.2          21.3 VXEF012033
     K24F00B 1C2024 03 17.01698 12 42 26.52 +05 50 18.5          21.0 VXEF012033
     K24F00B 1C2024 03 17.01957 12 42 25.61 +05 50 23.4          21.1 VXEF012033
     K24F00B 1C2024 03 17.02218 12 42 24.60 +05 50 28.0          21.3 VXEF012033
     K24F00B |C2024 03 17.25791012 41 01.940+05 59 21.90         21.5 GVEF012807
     K24F00B |C2024 03 17.26678012 40 58.570+05 59 37.80         21.5 GVEF012807
     K24F00B |C2024 03 17.27551612 40 55.240+05 59 53.10         21.4 GVEF012807
     K24F00B  C2024 03 17.46731712 39 50.983+06 04 08.57         21.63GVEF012F51
     K24F00B  C2024 03 17.46813212 39 50.683+06 04 09.91         21.81GVEF012F51
     K24F00B 1C2024 03 17.53532312 39 25.424+06 06 05.39         21.70GVEF012T12
     K24F00B 1C2024 03 17.54025312 39 23.577+06 06 13.73         22.16GVEF012T12
     K24F00B 1C2024 03 18.00517 12 36 51.32 +06 18 26.5          21.6 VXEF012033
     K24F00B 1C2024 03 18.00807 12 36 50.30 +06 18 31.2          20.9 VXEF012033

Observer details:
033 Karl Schwarzschild Observatory, Tautenburg.  Observers S. Melnikov, C.
    Hogner, F. Ludwig, M. Hartmann, B. Stecklum.  Measurer B. Stecklum.
    1.34-m f/3 Schmidt + CCD.
807 Cerro Tololo Observatory, La Serena.  Observers T. Linder, R. Holmes.
    0.61-m f/6.8 Ritchey-Chretien + CCD.
F51 Pan-STARRS 1, Haleakala.  Observers J. Herman, T. Lowe, P. Minguez, A.
    Schultz, I. Smith.  Measurers K. Chambers, T. de Boer, J. Fairlamb, H.
    Gao, M. Huber, C.-C. Lin, E. Magnier, Y. Ramanjooloo, R. Wainscoat, R.
    Weryk.  1.8-m Ritchey-Chretien + CCD.
F52 Pan-STARRS 2, Haleakala.  Observers J. Herman, T. Lowe, P. Minguez, A.
    Schultz, I. Smith.  Measurers K. Chambers, T. de Boer, J. Fairlamb, H.
    Gao, M. Huber, C.-C. Lin, E. Magnier, Y. Ramanjooloo, R. Wainscoat, R.
    Weryk.  1.8-m Ritchey-Chretien + CCD.
T12 University of Hawaii 88-inch telescope, Maunakea.  Observer Y.
    Ramanjooloo.  Measurers R. Weryk, Y. Ramanjooloo, J. Fairlamb, R.
    Wainscoat.  2.24-m f/10.1 reflector + CCD.

Orbital elements:
2024 FB                                                  Earth MOID = 0.0024 AU
Epoch 2024 Mar. 31.0 TT = JDT 2460400.5                 MPC                     
M  91.04886              (2000.0)            P               Q                  
n   0.90984352     Peri.  275.97528     +0.43736133     -0.89914737             
a   1.0547712      Node   148.07415     +0.83643596     +0.40028642             
e   0.3082345      Incl.    1.71020     +0.33028768     +0.17693159             
P   1.08           H   25.71          G   0.15           U   8                  
Residuals in seconds of arc
240316 F52  0.5+  0.4-    240317 033  0.9+  0.6+    240317 F51  0.2+  0.1-
240316 F52  0.3-  0.1+    240317 033  0.5+  0.6+    240317 T12  0.1-  0.1-
240316 F52  0.1-  0.1+    240317 807  0.1+  0.4-    240317 T12  0.3-  0.0
240316 F52  0.0   0.3+    240317 807  0.1-  0.1+    240318 033  0.1-  0.5+
240317 033  0.2+  0.0     240317 807  0.5-  0.3+    240318 033  0.1-  0.5+
240317 033  0.1-  0.4+    240317 F51  0.1+  0.1-

Ephemeris:
2024 FB                  a,e,i = 1.05, 0.31, 2                   q = 0.7297
Date    TT    R. A. (2000) Decl.     Delta      r    Elong.  Phase     V
2024 02 17    19 22 20.1 -21 15 15   0.06915 0.9347    38.4   139.0    26.5
...
2024 03 03    15 09 19.3 -07 50 45   0.05466 1.0157   115.1    62.1    21.6
...
2024 03 11    13 27 26.8 +01 47 33   0.07382 1.0577   149.5    28.5    21.4
...
2024 03 17    12 42 32.9 +05 50 51   0.09583 1.0881   165.5    13.2    21.6
2024 03 18    12 36 53.3 +06 19 18   0.09994 1.0930   167.4    11.5    21.6
2024 03 19    12 31 38.5 +06 45 01   0.1042  1.0980   168.9    10.1    21.7
...
2024 03 25    12 07 15.1 +08 33 52   0.1316  1.1269   169.4     9.4    22.2
...
2024 04 02    11 47 56.4 +09 38 14   0.1732  1.1634   159.6    17.5    23.1
...
2024 04 17    11 34 45.4 +09 30 29   0.2644  1.2249   142.8    29.7    24.6

A. U. Tomatic                (C) Copyright 2024 MPC           M.P.E.C. 2024-F12





More information about the Iaude mailing list